Poughkeepsie, NY

6:04 PM EDT on April 23, 2018 (GMT -0400)
Dutchess County

Weather History for KPOU - October, 2012

Change the Weather History Date:

Thursday, October 4, 2012

  Actual Average Record
Temperature  
Mean Temperature 68 °F 56 °F  
Max Temperature 73 °F 68 °F 85 °F (2007)
Min Temperature 63 °F 43 °F 29 °F (1974)
Degree Days  
Heating Degree Days 0 10  
Month to date heating degree days 13 38  
Since 1 July heating degree days 113 178  
Cooling Degree Days 3 0  
Month to date cooling degree days 3 0  
Year to date cooling degree days 892 668  
Growing Degree Days 18 (Base 50)    
Moisture  
Dew Point 66 °F    
Average Humidity 92    
Maximum Humidity 100    
Minimum Humidity 84    
Precipitation  
Precipitation 0.81 in 0.14 in 1.20 in (1987)
Month to date precipitation 1.61 0.59  
Year to date precipitation 29.39 35.65  
Sea Level Pressure  
Sea Level Pressure 30.07 in    
Wind  
Wind Speed 1 mph (WNW)    
Max Wind Speed 10 mph    
Max Gust Speed 14 mph    
Visibility 4 miles    
Events Fog , Rain    
T = Trace of Precipitation, MM = Missing Value Source: NWS Daily Summary

Daily Weather History Graph

Daily Weather History Graph

Search for Another Location

Airport or City:

Astronomy

Oct. 04, 2012 Rise Set
Actual Time 6:56 AM EDT 6:31 PM EDT
Civil Twilight 6:28 AM EDT 6:59 PM EDT
Nautical Twilight 5:56 AM EDT 7:31 PM EDT
Astronomical Twilight 5:23 AM EDT 8:03 PM EDT
Moon 9:01 PM EDT (10/4) 11:14 AM EDT (10/4)
Length of Visible Light 12h 30m
Length of Day
11h 35m
Waning Gibbous, 82% of the Moon is Illuminated
Oct 4
Waning Gibbous
Oct 8
Last Quarter
Oct 15
New
Oct 21
First Quarter
Oct 29
Full

Hourly Weather History & Observations

Time (EDT) Temp. Dew Point Humidity Pressure Visibility Wind Dir Wind Speed Gust Speed Precip Events Conditions
12:13 AM 66.2 °F 66.2 °F 100% 30.11 in 3.0 mi Calm Calm - N/A   Overcast
12:16 AM 66.2 °F 66.2 °F 100% 30.11 in 4.0 mi Calm Calm - N/A   Overcast
12:53 AM 66.9 °F 66.0 °F 97% 30.10 in 4.0 mi Calm Calm - N/A   Overcast
1:53 AM 68.0 °F 66.0 °F 93% 30.10 in 4.0 mi Calm Calm - N/A   Overcast
2:53 AM 66.9 °F 64.9 °F 93% 30.10 in 5.0 mi Calm Calm - N/A   Overcast
3:53 AM 68.0 °F 66.0 °F 93% 30.10 in 4.0 mi Calm Calm - N/A   Overcast
4:53 AM 68.0 °F 66.0 °F 93% 30.09 in 4.0 mi Calm Calm - 0.00 in Rain Light Rain
5:17 AM 66.2 °F 66.2 °F 100% 30.11 in 2.5 mi Calm Calm - 0.00 in   Overcast
5:46 AM 68.0 °F 66.2 °F 94% 30.11 in 3.0 mi Calm Calm - 0.00 in   Overcast
5:53 AM 68.0 °F 66.0 °F 93% 30.10 in 4.0 mi Calm Calm - 0.00 in   Overcast
6:53 AM 66.9 °F 66.0 °F 97% 30.11 in 3.0 mi Calm Calm - 0.00 in   Overcast
7:31 AM 68.0 °F 66.2 °F 94% 30.12 in 2.5 mi Calm Calm - N/A   Overcast
7:53 AM 68.0 °F 66.0 °F 93% 30.12 in 2.0 mi Calm Calm - N/A   Overcast
8:05 AM 69.8 °F 66.2 °F 88% 30.12 in 2.0 mi Calm Calm - 0.00 in Rain Light Rain
8:26 AM 69.8 °F 66.2 °F 88% 30.12 in 2.0 mi Calm Calm - 0.01 in   Overcast
8:53 AM 69.1 °F 66.0 °F 90% 30.10 in 2.0 mi Calm Calm - 0.01 in   Overcast
9:53 AM 70.0 °F 66.9 °F 90% 30.12 in 2.0 mi Calm Calm - N/A   Overcast
10:00 AM 69.8 °F 66.2 °F 88% 30.13 in 5.0 mi Calm Calm - N/A   Overcast
10:26 AM 69.8 °F 66.2 °F 88% 30.13 in 5.0 mi NW 3.5 mph - 0.00 in Rain Light Rain
10:53 AM 70.0 °F 66.9 °F 90% 30.12 in 4.0 mi Calm Calm - 0.01 in Rain Light Rain
11:53 AM 71.1 °F 68.0 °F 90% 30.07 in 4.0 mi East 5.8 mph - 0.02 in Rain Light Rain
12:14 PM 71.6 °F 68.0 °F 88% 30.07 in 6.0 mi East 3.5 mph - 0.00 in   Overcast
12:25 PM 71.6 °F 68.0 °F 88% 30.08 in 7.0 mi Calm Calm - 0.00 in   Overcast
12:53 PM 72.0 °F 68.0 °F 87% 30.07 in 8.0 mi Calm Calm - 0.00 in   Mostly Cloudy
1:53 PM 72.0 °F 68.0 °F 87% 30.05 in 8.0 mi Calm Calm - 0.00 in   Mostly Cloudy
2:53 PM 73.0 °F 68.0 °F 84% 30.04 in 7.0 mi Calm Calm - N/A   Mostly Cloudy
3:00 PM 73.4 °F 68.0 °F 83% 30.05 in 8.0 mi Calm Calm - N/A   Mostly Cloudy
3:53 PM 73.0 °F 68.0 °F 84% 30.04 in 9.0 mi WSW 6.9 mph - N/A   Overcast
4:46 PM 71.6 °F 68.0 °F 88% 30.03 in 1.5 mi Calm Calm - 0.04 in Rain Rain
4:53 PM 71.1 °F 68.0 °F 90% 30.02 in 0.5 mi Calm Calm - 0.13 in Fog , Rain Light Rain
4:55 PM 69.8 °F 68.0 °F 94% 30.03 in 0.2 mi Calm Calm - 0.06 in Fog , Rain Heavy Rain
5:04 PM 69.8 °F 66.2 °F 88% 30.04 in 0.5 mi West 3.5 mph - 0.21 in Fog , Rain Heavy Rain
5:44 PM 68.0 °F 66.2 °F 94% 30.04 in 5.0 mi Calm Calm - 0.63 in Rain Heavy Rain
6:19 PM 68.0 °F 66.2 °F 94% 30.04 in 10.0 mi Calm Calm - 0.00 in   Overcast
6:37 PM 68.0 °F 66.2 °F 94% 30.04 in 6.0 mi Calm Calm - 0.00 in   Overcast
6:53 PM 68.0 °F 66.0 °F 93% 30.02 in 9.0 mi Calm Calm - 0.00 in   Overcast
7:05 PM 66.2 °F 64.4 °F 94% 30.03 in 4.0 mi Calm Calm - N/A   Mostly Cloudy
7:07 PM 66.2 °F 64.4 °F 94% 30.03 in 1.8 mi Calm Calm - N/A   Mostly Cloudy
7:11 PM 66.2 °F 64.4 °F 94% 30.03 in 0.8 mi Calm Calm - N/A   Mostly Cloudy
7:31 PM 66.2 °F 64.4 °F 94% 30.04 in 1.2 mi WNW 4.6 mph - N/A   Overcast
7:34 PM 66.2 °F 64.4 °F 94% 30.04 in 3.0 mi WNW 4.6 mph - N/A   Overcast
7:53 PM 66.9 °F 64.9 °F 93% 30.03 in 7.0 mi Calm Calm - N/A   Overcast
8:33 PM 66.2 °F 64.4 °F 94% 30.04 in 1.8 mi Calm Calm - N/A   Overcast
8:43 PM 64.4 °F 64.4 °F 100% 30.05 in 0.2 mi Calm Calm - N/A Fog Fog
8:53 PM 64.9 °F 64.0 °F 97% 30.03 in 0.2 mi Calm Calm - N/A Fog Fog
9:04 PM 64.4 °F 64.4 °F 100% 30.04 in 0.2 mi Calm Calm - N/A Fog Fog
9:35 PM 64.4 °F 64.4 °F 100% 30.05 in 0.2 mi Calm Calm - N/A Fog Fog
9:53 PM 66.0 °F 64.0 °F 93% 30.05 in 0.2 mi Calm Calm - N/A Fog Fog
10:03 PM 66.2 °F 64.4 °F 94% 30.06 in 1.0 mi Calm Calm - N/A   Mist
10:12 PM 66.2 °F 64.4 °F 94% 30.06 in 2.5 mi Calm Calm - N/A   Overcast
10:19 PM 64.4 °F 64.4 °F 100% 30.06 in 4.0 mi Calm Calm - N/A   Overcast
10:53 PM 64.9 °F 64.0 °F 97% 30.06 in 2.5 mi Calm Calm - N/A   Overcast
11:01 PM 64.4 °F 62.6 °F 94% 30.07 in 5.0 mi Calm Calm - N/A   Overcast
11:30 PM 64.4 °F 62.6 °F 94% 30.06 in 1.8 mi Calm Calm - N/A   Overcast
11:53 PM 64.0 °F 63.0 °F 96% 30.05 in 1.5 mi Calm Calm - N/A   Overcast